When you browse on this site, cookies collect data to enhance your experience and personalize the content and advertising you see.
Visit our Privacy Policy to learn more. By continuing to use the site, you agree to this use of cookies and data.
  • In Romania
  • List of Countries
  • For 7 days
  • Water Temperature
  • Satellite Maps
  • Weather Map
  • Weather Widgets
  • user-avatar
    Login

    Hourly Weather Booué

    Today, 25 March, Monday

    Time Temperature Precipitation Wind Pressure Humidity
    00:00 +25°C° 0.2 mm 1 mps 734 mmHg 95%
    01:00 +24°C° 0 mm 1 mps 735 mmHg 96%
    02:00 +24°C° 0.2 mm 1 mps 734 mmHg 96%
    03:00 +24°C° 0.2 mm 1 mps 734 mmHg 97%
    04:00 +24°C° 0.2 mm 1 mps 734 mmHg 97%
    05:00 +24°C° 0.1 mm 1 mps 734 mmHg 97%
    06:00 +24°C° 0.1 mm 1 mps 734 mmHg 97%
    07:00 +24°C° 0 mm 1 mps 734 mmHg 96%
    08:00 +26°C° 0 mm 1 mps 735 mmHg 85%
    09:00 +29°C° 0 mm 1 mps 735 mmHg 74%
    10:00 +31°C° 0 mm 1 mps 735 mmHg 63%
    11:00 +32°C° 0.1 mm 1 mps 735 mmHg 58%
    12:00 +34°C° 0.1 mm 1 mps 734 mmHg 54%
    13:00 +35°C° 0.1 mm 1 mps 734 mmHg 50%
    14:00 +34°C° 0.4 mm 1 mps 733 mmHg 53%
    15:00 +34°C° 0.4 mm 1 mps 732 mmHg 56%
    16:00 +33°C° 0.4 mm 1 mps 732 mmHg 59%
    17:00 +31°C° 0.9 mm 1 mps 732 mmHg 69%
    18:00 +29°C° 0.9 mm 1 mps 732 mmHg 79%
    19:00 +26°C° 0.9 mm 1 mps 733 mmHg 89%
    20:00 +26°C° 0.4 mm 1 mps 733 mmHg 90%
    21:00 +26°C° 0.4 mm 1 mps 734 mmHg 91%
    22:00 +25°C° 0.4 mm 1 mps 735 mmHg 91%
    23:00 +25°C° 0 mm 1 mps 734 mmHg 92%

    Tomorrow, 26 March, Tuesday

    Time Temperature Precipitation Wind Pressure Humidity
    00:00 +25°C° 0 mm 1 mps 734 mmHg 94%
    01:00 +24°C° 0 mm 1 mps 734 mmHg 95%
    02:00 +24°C° 0 mm 1 mps 734 mmHg 96%
    03:00 +24°C° 0 mm 1 mps 733 mmHg 97%
    04:00 +24°C° 0 mm 1 mps 733 mmHg 97%
    05:00 +22°C° 0 mm 0 mps 733 mmHg 97%
    06:00 +22°C° 0 mm 0 mps 734 mmHg 96%
    07:00 +22°C° 0 mm 0 mps 735 mmHg 95%
    08:00 +25°C° 0 mm 0 mps 735 mmHg 83%
    09:00 +28°C° 0 mm 0 mps 736 mmHg 71%
    10:00 +30°C° 0 mm 0 mps 736 mmHg 59%
    11:00 +31°C° 0 mm 0 mps 736 mmHg 55%
    12:00 +34°C° 0 mm 1 mps 735 mmHg 51%
    13:00 +35°C° 0 mm 1 mps 734 mmHg 46%
    14:00 +35°C° 0 mm 1 mps 733 mmHg 46%
    15:00 +33°C° 0 mm 0 mps 733 mmHg 45%
    16:00 +33°C° 0 mm 0 mps 732 mmHg 45%
    17:00 +31°C° 0 mm 0 mps 732 mmHg 52%
    18:00 +29°C° 0 mm 0 mps 732 mmHg 59%
    19:00 +27°C° 0 mm 0 mps 733 mmHg 66%
    20:00 +26°C° 0 mm 0 mps 733 mmHg 69%
    21:00 +26°C° 0 mm 0 mps 734 mmHg 72%
    22:00 +25°C° 0 mm 0 mps 735 mmHg 75%
    23:00 +24°C° 0.6 mm 0 mps 735 mmHg 81%

    Day after tomorrow, 27 March, Wednesday

    Time Temperature Precipitation Wind Pressure Humidity
    00:00 +24°C° 0.6 mm 0 mps 735 mmHg 86%
    01:00 +23°C° 0.6 mm 0 mps 735 mmHg 92%
    02:00 +25°C° 1.6 mm 1 mps 735 mmHg 94%
    03:00 +25°C° 1.6 mm 1 mps 734 mmHg 96%
    04:00 +24°C° 1.6 mm 1 mps 734 mmHg 97%
    05:00 +24°C° 0 mm 1 mps 734 mmHg 97%
    06:00 +24°C° 0 mm 1 mps 735 mmHg 97%
    07:00 +24°C° 0 mm 1 mps 735 mmHg 97%
    08:00 +27°C° 0 mm 1 mps 735 mmHg 85%
    09:00 +27°C° 0 mm 0 mps 736 mmHg 74%
    10:00 +30°C° 0 mm 0 mps 736 mmHg 63%
    11:00 +34°C° 0 mm 1 mps 735 mmHg 56%
    12:00 +35°C° 0 mm 1 mps 735 mmHg 48%
    13:00 +37°C° 0 mm 1 mps 734 mmHg 40%
    14:00 +37°C° 0 mm 1 mps 733 mmHg 40%
    15:00 +37°C° 0 mm 1 mps 733 mmHg 40%
    16:00 +37°C° 0 mm 1 mps 732 mmHg 40%
    17:00 +34°C° 0 mm 1 mps 732 mmHg 47%
    18:00 +30°C° 0 mm 0 mps 733 mmHg 55%
    19:00 +28°C° 0 mm 0 mps 733 mmHg 62%
    20:00 +27°C° 0.2 mm 0 mps 733 mmHg 65%
    21:00 +27°C° 0.2 mm 0 mps 734 mmHg 69%
    22:00 +26°C° 0.2 mm 0 mps 735 mmHg 72%
    23:00 +26°C° 0.2 mm 0 mps 734 mmHg 74%

    28 March, Thursday

    Time Temperature Precipitation Wind Pressure Humidity
    00:00 +25°C° 0.2 mm 0 mps 734 mmHg 77%
    01:00 +25°C° 0.2 mm 0 mps 734 mmHg 79%
    02:00 +24°C° 0.3 mm 0 mps 734 mmHg 81%
    03:00 +24°C° 0.3 mm 0 mps 733 mmHg 83%
    04:00 +23°C° 0.3 mm 0 mps 733 mmHg 85%
    05:00 +24°C° 0 mm 0 mps 733 mmHg 85%
    06:00 +24°C° 0 mm 0 mps 734 mmHg 85%
    07:00 +24°C° 0 mm 0 mps 735 mmHg 85%
    08:00 +27°C° 0 mm 0 mps 735 mmHg 75%
    09:00 +30°C° 0 mm 0 mps 735 mmHg 64%
    10:00 +33°C° 0 mm 0 mps 736 mmHg 54%
    11:00 +34°C° 0 mm 0 mps 735 mmHg 49%
    12:00 +36°C° 0 mm 0 mps 734 mmHg 43%
    13:00 +38°C° 0 mm 0 mps 733 mmHg 38%
    14:00 +36°C° 0 mm 0 mps 733 mmHg 42%
    15:00 +37°C° 0 mm 1 mps 732 mmHg 46%
    16:00 +35°C° 0 mm 1 mps 731 mmHg 50%
    17:00 +33°C° 0.5 mm 1 mps 732 mmHg 60%
    18:00 +31°C° 0.5 mm 1 mps 732 mmHg 69%
    19:00 +30°C° 0.5 mm 1 mps 733 mmHg 78%
    20:00 +29°C° 9 mm 1 mps 733 mmHg 84%
    21:00 +28°C° 9 mm 1 mps 734 mmHg 90%
    22:00 +27°C° 9 mm 1 mps 734 mmHg 96%
    23:00 +26°C° 1.1 mm 1 mps 734 mmHg 96%

    29 March, Friday

    Time Temperature Precipitation Wind Pressure Humidity
    00:00 +26°C° 1.1 mm 1 mps 734 mmHg 96%
    01:00 +26°C° 1.1 mm 1 mps 734 mmHg 95%
    02:00 +26°C° 0 mm 1 mps 733 mmHg 96%
    03:00 +26°C° 0 mm 1 mps 733 mmHg 97%
    04:00 +23°C° 0 mm 0 mps 733 mmHg 98%
    05:00 +23°C° 0 mm 0 mps 733 mmHg 98%
    06:00 +24°C° 0 mm 0 mps 734 mmHg 97%
    07:00 +24°C° 0 mm 0 mps 734 mmHg 97%
    08:00 +25°C° 0 mm 0 mps 734 mmHg 90%
    09:00 +27°C° 0 mm 0 mps 735 mmHg 84%
    10:00 +30°C° 0 mm 1 mps 735 mmHg 77%
    11:00 +31°C° 0 mm 1 mps 734 mmHg 72%
    12:00 +32°C° 0 mm 1 mps 733 mmHg 66%
    13:00 +34°C° 0 mm 1 mps 732 mmHg 61%
    14:00 +34°C° 0 mm 1 mps 732 mmHg 60%
    15:00 +32°C° 0 mm 0 mps 731 mmHg 59%
    16:00 +32°C° 0 mm 0 mps 730 mmHg 58%
    17:00 +32°C° 0.4 mm 1 mps 731 mmHg 64%
    18:00 +31°C° 0.4 mm 1 mps 732 mmHg 71%
    19:00 +29°C° 0.4 mm 1 mps 732 mmHg 78%
    20:00 +29°C° 0 mm 1 mps 733 mmHg 79%
    21:00 +28°C° 0 mm 1 mps 733 mmHg 81%
    22:00 +28°C° 0 mm 1 mps 734 mmHg 83%
    23:00 +27°C° 0 mm 1 mps 733 mmHg 86%

    30 March, Saturday

    Time Temperature Precipitation Wind Pressure Humidity
    00:00 +27°C° 0 mm 1 mps 733 mmHg 89%
    01:00 +26°C° 0 mm 1 mps 732 mmHg 92%
    02:00 +26°C° 0 mm 1 mps 732 mmHg 93%
    03:00 +26°C° 0 mm 1 mps 732 mmHg 95%
    04:00 +24°C° 0 mm 0 mps 732 mmHg 96%
    05:00 +24°C° 0 mm 0 mps 732 mmHg 96%
    06:00 +26°C° 0 mm 1 mps 733 mmHg 95%
    07:00 +26°C° 0 mm 1 mps 734 mmHg 94%
    08:00 +27°C° 0 mm 1 mps 734 mmHg 88%
    09:00 +29°C° 0 mm 1 mps 734 mmHg 81%
    10:00 +30°C° 0 mm 1 mps 735 mmHg 74%
    11:00 +32°C° 0 mm 1 mps 734 mmHg 68%
    12:00 +34°C° 0 mm 1 mps 733 mmHg 61%
    13:00 +35°C° 0 mm 1 mps 732 mmHg 54%
    14:00 +35°C° 0 mm 1 mps 732 mmHg 54%
    15:00 +35°C° 0 mm 1 mps 731 mmHg 54%
    16:00 +34°C° 0 mm 1 mps 730 mmHg 55%
    17:00 +33°C° 0 mm 1 mps 731 mmHg 62%
    18:00 +31°C° 0 mm 1 mps 732 mmHg 69%
    19:00 +29°C° 0 mm 1 mps 732 mmHg 77%
    20:00 +28°C° 0.8 mm 1 mps 732 mmHg 80%
    21:00 +28°C° 0.8 mm 1 mps 733 mmHg 84%
    22:00 +27°C° 0.8 mm 1 mps 733 mmHg 88%
    23:00 +27°C° 0.4 mm 1 mps 733 mmHg 91%
    Show more